Location: Newark
(32.3788°N, 35.6119°E)
Time: 16:29:56
(UTC+00:00)

X-37B - Visible Passes

Search period start: 30 September 2020 00:00
Search period end: 10 October 2020 00:00
Orbit: 386 x 387 km, 45.0° (Epoch: 18 September)

Date Brightness Start Highest point End Pass type
(mag) Time Alt. Az. Time Alt. Az. Time Alt. Az.
30 Sep 1.4 16:21:12 10° SSW 16:24:05 33° SE 16:24:52 28° ESE visible
01 Oct 1.5 16:58:58 10° WSW 17:01:49 46° NW 17:01:49 46° NW visible
02 Oct 0.5 16:00:18 10° SW 16:03:27 78° SE 16:06:19 12° ENE visible
02 Oct 4.0 17:38:12 10° WNW 17:38:37 12° WNW 17:38:37 12° WNW visible
03 Oct 2.5 16:38:51 10° W 16:41:35 26° NNW 16:42:58 19° NNE visible
04 Oct 1.5 15:39:50 10° WSW 15:42:54 47° NNW 15:45:59 10° NE visible
04 Oct 3.7 17:18:44 10° NW 17:19:29 12° NNW 17:19:29 12° NNW visible
05 Oct 3.1 16:19:04 10° WNW 16:21:14 17° NNW 16:23:23 10° NNE visible
07 Oct 3.3 15:59:36 10° NW 16:00:56 12° NNW 16:02:18 10° N visible
